Regional Weather Roundup
Issued by NWS Pendleton, OR

Home | Current Version | Previous Version | Text Only | Print | Product List | Glossary On
Versions: 1 2 3 4 5 6 7 8 9 10 11 12 13 14 15 16 17 18 19 20 21 22 23 24 25 26 27 28 29 30 31 32 33 34 35 36 37 38 39 40 41 42 43 44 45 46 47 48 49 50
000
ASUS46 KPDT 240025
RWRPDT
PENDLETON REGIONAL WEATHER ROUNDUP
NATIONAL WEATHER SERVICE PENDLETON OREGON
500 PM PDT SAT JUN 23 2018

NOTE: FAIR INDICATES FEW OR NO CLOUDS BELOW 12,000 FEET WITH NO
SIGNIFICANT WEATHER AND/OR OBSTRUCTIONS TO VISIBILITY.

# INDICATES UNOFFICIAL STATION AND DATA

WAZ520-240110-
EAST SLOPES OF WASHINGTON CASCADES

CITY            SKY/WX      TMP DP  RH  WIND    PRES   REMARKS
#BULLFROG       N/A         65  48  54  W17G26  N/A
#CLE ELUM HS    N/A         64  48  56  SW10    30.04
#EASTON DOT     N/A         N/A N/A N/A N3      N/A
#ELK HTS DOT    N/A         68  68  100 SW6     N/A
#GLENWOOD       N/A         76  54  46  S2      29.98
#NELSON 3SW     N/A         63  49  60  NE1     30.23
#NILE           N/A         70  50  49  SW3     29.39
#RONALD 2NW     N/A          0  N/A N/A CALM    29.98S
#TROUT LAKE 1NE N/A         72  52  49  W7      30.00
#TROUT LAKE 1E  N/A         74  51  44  NW1     30.09
$$

WAZ521-240110-
SIMCOE HIGHLANDS

CITY            SKY/WX      TMP DP  RH  WIND    PRES   REMARKS
#BICKLETON HS   N/A         74  41  30  N12     29.72S
#SATUS PASS DOT N/A         74  38  27  N3      N/A
#CENTERVILLE 1SWN/A         73  50  44  W17     29.96
#GOLDENDALE 4W  N/A         76  22  13  W10     30.06S
#GOODNOE HILLS  N/A         80  48  33  W15     29.94S
#LYLE 6NE       N/A         73  52  48  W14G24  30.03
#PITT 4SE       N/A         69  50  51  W14     30.04
$$

WAZ026-240110-
KITTITAS VALLEY

CITY            SKY/WX      TMP DP  RH  WIND    PRES   REMARKS
ELLENSBURG AP   SUNNY       73  50  44  NW31G41 30.02
6HR MIN TEMP:   70; 6HR MAX TEMP:   76;

#ELLENSBURG CWU N/A         72  49  44  N24     29.91
#ELLENSBURG 1E  N/A         72  49  44  W7      30.03
#KITTITAS 3S    N/A         74  51  44  W15G26  29.93
#THORP 6N       N/A         71  55  57  CALM    29.93
$$

WAZ027-240110-
YAKIMA VALLEY

CITY            SKY/WX      TMP DP  RH  WIND    PRES   REMARKS
SUNNYSIDE AP    SUNNY       32   4  30  S6      29.97F
YAKIMA AIRPORT  MOSUNNY     85  45  25  NW8     29.98
6HR MIN TEMP:   75; 6HR MAX TEMP:   86;

YAKIMA-VAGABOND N/A         84  39  20  W9      29.97
6HR MIN TEMP:   74; 6HR MAX TEMP:   85;

#DONALD 2NE     N/A         90  26  10  E2      28.82S HX 86
#GRANDVIEW      N/A         81  43  26  CALM    29.95F
#MABTON         N/A         81  51  35  CALM    29.97
#NACHES 2SW     N/A         74  51  44  W12     30.03
#OUTLOOK DOT    N/A         83  41  23  CALM    29.95
#PARKER DOT     N/A         85  42  22  E3      29.97
#TERRACE HTS    N/A         87  50  28  NW3     29.90
#TOPPENISH      N/A         83  49  31  CALM    29.85
#I82 S UMTANUM RN/A         81  47  30  N9      N/A
#UNION GAP DOT  N/A         84  41  22  N3      30.00
#W YAKIMA       N/A         81  50  34  NW3     29.94S
#WHITE SWAN 5E  N/A         82  48  31  CALM    29.94
#ZILLAH DOT     N/A         84  45  26  S5      N/A
$$

WAZ028-240110-
LOWER COLUMBIA BASIN...WASHINGTON

CITY            SKY/WX      TMP DP  RH  WIND    PRES   REMARKS
PASCO           SUNNY       85  46  26  VRB6    29.97
6HR MIN TEMP:   75; 6HR MAX TEMP:   86;

PROSSER AWOS    N/A         82  48  31  W5      30.00S
RICHLAND AWOS   SUNNY       88  46  23  S12     29.95F
#BASIN CITY 5SW N/A         80  53  39  SE5     29.92
#BENTON CITY    N/A         82  47  29  CALM    29.84
#CONNELL 5N     N/A         82  49  32  S5      29.94
#CONNELL 5NW    N/A         81  56  42  SW5     29.89
#ELTOPIA 6NW    N/A         80  53  39  CALM    28.96
#KAHLOTUS       N/A         78  46  32  NW12    29.94
#KENNEWICK 3S   N/A         82  51  34  CALM    29.96
#PROSSER DOT    N/A         85  41  21  SW1     29.99
#SAGEMOOR 2W    N/A         81  54  39  S6      29.81
#TOUCHET 2S     N/A         82  54  38  N1      29.94
$$

WAZ029-240110-
FOOTHILLS OF THE BLUES...WASHINGTON

CITY            SKY/WX      TMP DP  RH  WIND    PRES   REMARKS
WALLA WALLA AP  SUNNY       80  42  26  CALM    30.01
6HR MIN TEMP:   70; 6HR MAX TEMP:   80;

#CLYDE 6NW      N/A         79  47  32  S7      29.93
#DELANEY DOT    N/A         80  41  25  SW3     N/A
#LOWDEN 2SE     N/A         82  51  34  W2      29.95
#PRESCOTT       N/A         83  49  31  CALM    29.94
#WHITMAN COLLEGEN/A         78  46  32  SW6     30.01S
#WAITSBURG 6SSE N/A         77  47  35  S2      29.81S
#WAITSBURG 8N   N/A          0  N/A N/A S10     29.79F
#WALLA WALLA 5E N/A         79  50  36  CALM    N/A
#WHITMAN MISSIONN/A         81  49  33  CALM    29.97
$$

WAZ030-240110-
BLUE MOUNTAINS...WASHINGTON

CITY            SKY/WX      TMP DP  RH  WIND    PRES   REMARKS
#DIXIE 5SE      N/A         69  45  42  W7      30.01
$$

ORZ009-041-WAZ024-240110-
COLUMBIA RIVER GORGE

CITY            SKY/WX      TMP DP  RH  WIND    PRES   REMARKS
HOOD RIVER AP   SUNNY       73  50  44  W9      30.06F
THE DALLES AP   SUNNY       81  51  35  NW15G31 30.01
6HR MIN TEMP:   74; 6HR MAX TEMP:   83;

#ARLINGTON AIRPON/A         81  48  32  W13     29.97F
#CELILO DOT     N/A         80  53  39  SW12    N/A
#LYLE           N/A         75  55  50  W13G26  30.03
#MARYHILL       N/A         78  47  34  N24     29.87
#MURDOCK        N/A         76  55  48  NW16G24 29.97S
#RUFUS DOT      N/A         80  49  34  W16     N/A
#SMITHVILLE     N/A         77  53  43  W14     29.98F

$$

ORZ510-240110-
NORTH CENTRAL OREGON

CITY            SKY/WX      TMP DP  RH  WIND    PRES   REMARKS
#ANTELOPE       N/A         74  44  34  N2      29.83
#DUFUR          N/A         76  49  39  N8      29.96
#DUFUR 9E       N/A         70  50  49  N15G26  30.06
#GRASS VALLEY 1SN/A         74  47  38  N7      30.09
#KENT DOT       N/A         75  37  25  NW3     N/A
#MAUPIN SCHOOL  N/A         81  49  33  CALM    30.06
#SHANIKO 5WSW   N/A         69  35  28  N8      N/A
#TYGH VALLEY 2NEN/A         82  47  29  N1      29.96
#WAPANITIA AIRPON/A         77  46  33  SW1     30.00
#WASCO DOT      N/A         78  45  31  W15     N/A
#WASCO 5NE      N/A         78  49  36  W6      29.98
$$

ORZ511-240110-
CENTRAL OREGON

CITY            SKY/WX      TMP DP  RH  WIND    PRES   REMARKS
BEND AIRPORT    SUNNY       77  39  25  N12     30.09S
MADRAS AIRPORT  SUNNY       77  43  30  N5      30.08F
PRINEVILLE AP   SUNNY       75  39  27  N10     30.09S
REDMOND AIRPORT SUNNY       78  41  27  N17G24  30.08
6HR MIN TEMP:   69; 6HR MAX TEMP:   78;

#ASHWOOD SCHOOL N/A         74  39  28  N2      30.03
#BEND 1SW       N/A         73  43  34  N1      N/A
#BEND-AWBREY    N/A         78  45  31  NE5     29.95S
#BEND-KIM LN    N/A         76  45  33  N7      29.90
#CULVER 8W      N/A         76  35  22  CALM    30.07S
#LAKE BILLY CHINN/A         75  N/A N/A N10     30.09F
#POWELL BUTTE   N/A         73  37  27  N5      30.05S
#PRINEVILLE     N/A         75  41  29  N7      30.05
#PRINEVILLE 3N  N/A         73  47  40  W7      29.97S
#WARM SPRINGS   N/A         79  48  34  CALM    29.86

$$


ORZ509-240110-
EAST SLOPES OF OREGON CASCADES

CITY            SKY/WX      TMP DP  RH  WIND    PRES   REMARKS
SISTERS AWOS    N/A         77  43  30  CALM    30.05
#BLUE BOX PASS  N/A         63  N/A N/A NW1     N/A
#CAMP SHERMAN   N/A         78  41  27  W2      30.01
#LA PINE 4NW    N/A         74  43  33  CALM    29.97
#LAVA BUTTE DOT N/A         75  38  26  W3      N/A
#SISTERS ODOT   N/A         75  40  28  W2      N/A
#SISTERS 3N     N/A         76  43  31  NE3     30.09S
#SUNRIVER       N/A         75  43  32  NE3     29.97R
#TUMALO 3W      N/A         74  43  33  N6      29.85
#WANOGA BUTTE D N/A         64  35  34  NE8     N/A

$$

ORZ044-240110-
LOWER COLUMBIA BASIN...OREGON

CITY            SKY/WX      TMP DP  RH  WIND    PRES   REMARKS
HERMISTON       SUNNY       85  43  23  SW7     29.98
6HR MIN TEMP:   75; 6HR MAX TEMP:   87;

#BOARDMAN SCHOOLN/A         83  48  30  SW1     29.96
#ECHO 8SW       N/A         84  46  27  CALM    30.00
#I-84 EX 198 DOTN/A         80  50  35  E8      N/A
#IONE SCHOOL    N/A         79  44  29  S7      29.97
#UMATILLA       N/A         86  48  27  CALM    29.89
$$

ORZ507-240110-
NORTHERN FOOTHILLS OF THE BLUES

CITY            SKY/WX      TMP DP  RH  WIND    PRES   REMARKS
PENDLETON AIRPT SUNNY       79  39  24  NE3     30.02
6HR MIN TEMP:   70; 6HR MAX TEMP:   81; 6HR PCP:  TRACE;

#ADAMS 3WNW     N/A         78  46  32  W6      29.95
#ATHENA         N/A         77  46  33  SW1     29.99
#CAYUSE         N/A         77  46  33  SW5     29.95
#HELIX SCHOOL   N/A         77  46  33  W2      29.96
#HELIX 3N       N/A         76  46  34  N9      30.04
#HOLDMAN 6E     N/A         77  47  35  CALM    29.78
#M-FREEWATER 5SEN/A         79  53  41  CALM    30.01
#PENDLETON DNTN N/A         81  43  26  CALM    29.98
#PDT AQUATIC CTRN/A         81  47  30  CALM    29.99
#PDT SUNRIDGE   N/A         80  47  31  CALM    30.02
#PENDLETON 7NW  N/A         78  52  40  CALM    32.27
#PILOT ROCK     N/A         79  45  30  CALM    30.04S
#TUTUILLA       N/A         77  46  33  CALM    30.06
#UMAPINE 2E     N/A         82  49  32  N1      29.97

$$

ORZ508-240110-
SOUTHERN FOOTHILLS OF THE BLUES

CITY            SKY/WX      TMP DP  RH  WIND    PRES   REMARKS
#AJAX           N/A         75  39  27  CALM    30.20
#CONDON 5W      N/A         72  45  38  CALM    30.08
#FOSSIL SCHOOL  N/A         75  43  32  VRB1    30.01
#HEPPNER EOC    N/A         76  42  30  CALM    29.92
#HEPPNER 4NE    N/A         72  42  34  NW2     29.98
#LEXINGTON 2SE  N/A         81  45  28  CALM    29.98
#RUGGS 5NE      N/A         79  42  27  N1      30.27
#RUGGS 2SW      N/A         73  41  31  N9      30.00

$$

ORZ502-503-240110-
BLUE MOUNTAINS

CITY            SKY/WX      TMP DP  RH  WIND    PRES   REMARKS
MEACHAM         MOSUNNY     69  43  39  VRB5    30.11
6HR MIN TEMP:   57; 6HR MAX TEMP:   69;

#BATTLE MTN DOT N/A         69  39  33  CALM    N/A
#GRANITE        N/A         70  43  38  N3      29.80R
#HARDMAN 10S    N/A         68  41  37  N5      30.12S
#HEPPNER 15SE   N/A         66  44  45  S1      25.62S
#LADD CYN SMT   N/A         67  43  42  NW10    N/A
#LADD CREEK ODOTN/A         71  44  38  NE5     N/A
#N POWDER DOT   N/A         69  45  42  N16     N/A
#PIKES PEAK     N/A         66  46  48  SW5     27.99
#SUMMERVILLE 5NWN/A         70  48  46  CALM    26.72F
#TOLLGATE       N/A         59  42  53  N3      30.17
#TROY SCHOOL    N/A         78  50  38  CALM    29.77
#UKIAH          N/A         69  46  44  N10     29.89
$$

ORZ505-240110-
JOHN DAY BASIN

CITY            SKY/WX      TMP DP  RH  WIND    PRES   REMARKS
JOHN DAY        SUNNY       72  44  37  N8      30.10S
#ANTELOPE 9ESE  N/A         79  42  27  NE7     N/A
#DAYVILLE SCHOOLN/A         76  38  25  N7      30.01
#MITCHELL 8NW   N/A         70  40  34  NE6     30.01
#MONUMENT HS    N/A         79  39  24  W3      30.00
#SPRAY SCHOOL   N/A         80  N/A N/A NW3     N/A
$$

ORZ506-240110-
OCHOCO AND JOHN DAY HIGHLANDS

CITY            SKY/WX      TMP DP  RH  WIND    PRES   REMARKS
#HORSE RIDGE DO N/A         72  36  27  N6G24   N/A
#IZEE 6NW       N/A         76  44  32  N5      N/A
#PAULINA ODOT   N/A         72  36  27  N6      N/A
#PINE MTN OBS   N/A         61  39  44  NW5     N/A
#PRAIRIE CITY   N/A         73  47  40  NW1     30.22
#SENECA         N/A         66  N/A N/A N9      N/A
#SENECA 9NW     N/A         68  44  42  E1      29.93
$$

ORZ049-240110-
GRANDE RONDE VALLEY

CITY            SKY/WX      TMP DP  RH  WIND    PRES   REMARKS
LA GRANDE       SUNNY       72  44  37  N7      30.07
#COVE SCHOOL    N/A         72  49  44  CALM    30.07
#COVE 6NW       N/A         72  47  41  NW5     29.96
#ELGIN 3N       N/A         73  42  33  CALM    30.03S
#IMBLER SCHOOL  N/A         69  44  40  CALM    30.03
#ISLAND CITY 4N N/A         74  56  53  CALM    30.14
#LADD CYN DOT   N/A         71  47  42  N8      N/A
#UNION 1S       N/A         71  47  42  NW8     29.96
$$

ORZ050-240110-
WALLOWA COUNTY

CITY            SKY/WX      TMP DP  RH  WIND    PRES   REMARKS
#ENTERPRISE HS  N/A         69  46  44  NW1     29.85
#JOSEPH         N/A         67  38  34  N3      30.28S
#JOSEPH 3N      N/A         66  41  40  NW2     30.11
#JOSEPH 3W      N/A         67  48  50  CALM    29.95S
#LOSTINE        N/A         71  46  41  N1      29.77
#LOSTINE 3SE    N/A         69  42  37  N1      30.15
#MT HOWARD 8000 N/A         47  40  76  NW5     30.25
#PROMISE 1S     N/A         67  46  47  NW7     30.04
#WALLOWA LAKE   N/A         71  47  42  E2      30.14



$$



USA.gov is the U.S. government's official web portal to all federal, state and local government web resources and services.